CAPE
0 0 0 0 0 763 1120 1082 919 373 551 656 617 488 655 582 662 778 670 713 626 430 524 394 342 207 109 6 81 86 189 0 0 0 0 5 6 5 0 0 0 0 0 0 3 50 110 321 652 840 924 985 1035 1120 1158 1236 1218 1153 1035 941 1007 751 862 961 893 876 1042 1123 1041 1050 1315 1407 1530 1550 1821 2169 2178 2130 2296 2221 1896 1778 2076 2108 1754 1580
0 0 0 0 0 0 816 1180 840 50 550 634 594 540 645 627 590 741 722 700 633 414 380 341 380 165 80 37 256 283 198 0 0 0 0 6 0 0 0 0 0 0 0 0 0 21 155 365 637 801 896 1134 1071 1112 1147 1189 1180 1133 1038 926 1015 861 919 895 893 978 993 1038 943 923 1049 1086 1256 1456 1739 1937 2142 2186 2276 2208 1894 1921 2357 2111 1591 1596
0 0 0 0 0 0 0 834 781 135 0 541 471 510 596 598 865 822 796 707 573 602 376 402 374 257 166 24 65 419 474 1 0 0 0 1 0 0 0 0 0 0 0 0 0 62 217 395 610 743 841 986 1050 1091 1122 1149 1130 1090 1024 890 1022 939 970 928 954 927 945 1040 955 864 892 920 1019 1241 1509 1788 2004 2259 2285 2335 2006 2101 2466 1979 1378 1391
0 0 0 0 0 0 0 0 0 0 0 12 264 454 439 629 582 474 718 828 560 643 417 427 224 144 96 48 116 364 548 945 575 280 10 0 0 0 0 0 0 0 0 0 13 123 273 415 580 675 778 921 1016 1055 1069 1093 1083 1008 885 814 979 995 1037 1005 1147 1174 969 1080 949 885 803 807 917 1064 1502 1667 1924 2068 2324 2497 2358 2320 2465 1923 1348 1428
0 0 0 0 0 0 0 0 0 0 4 50 28 212 351 721 649 507 638 771 643 311 369 420 275 244 134 78 2 152 434 815 849 718 536 10 0 0 0 0 0 0 0 1 26 135 308 424 532 610 694 848 952 1002 1011 1017 979 854 741 807 983 1037 1090 1115 1538 1203 1000 1298 1100 955 887 892 974 1035 1208 1524 1720 1911 2390 2590 2532 2475 2461 2001 1658 1909
0 0 0 0 0 0 0 0 0 0 0 30 176 144 246 657 664 805 718 659 552 432 400 445 199 253 157 119 18 121 313 737 846 843 271 25 0 0 0 0 0 0 0 1 35 157 332 446 488 529 624 763 874 945 958 936 877 769 720 776 952 1050 1082 1127 1268 1087 1009 1260 1129 1106 914 817 938 1026 1128 1343 1583 1856 2394 2694 2593 2589 2488 2300 2200 2775
0 0 0 0 0 0 0 0 0 0 0 0 24 154 247 670 764 973 760 647 419 363 347 331 62 10 94 86 17 4 3 398 686 785 488 6 0 0 0 0 0 0 0 3 30 132 276 387 465 502 580 692 781 874 913 894 824 743 715 743 879 954 1001 1040 1199 1060 1212 985 1038 1095 980 862 969 1037 1117 1267 1491 1791 2112 2444 2570 2622 2607 2713 2368 2820
0 0 0 0 0 0 0 0 0 0 0 0 81 51 426 808 883 972 785 530 688 581 585 451 311 66 54 32 26 105 165 350 398 608 666 25 0 0 0 0 0 4 16 16 47 121 249 356 460 499 561 641 713 797 871 877 779 733 732 744 819 852 971 880 1266 1047 962 964 954 979 979 921 908 936 1023 1147 1387 1726 2029 2320 2452 2557 2608 2745 2732 2667
0 0 0 0 0 0 0 0 0 0 0 244 346 216 597 873 953 915 788 641 595 529 425 328 764 146 31 52 37 61 96 256 324 358 529 263 0 0 0 0 0 4 33 39 54 105 189 297 438 488 553 617 668 788 907 877 757 704 733 846 818 815 946 777 1471 1042 955 914 874 862 864 880 835 795 868 1083 1546 1672 2356 2111 2295 2420 2575 2804 2943 2957
0 0 0 0 0 0 0 0 0 0 11 878 811 787 866 881 819 810 636 560 558 378 272 355 495 268 16 67 73 54 61 117 233 303 379 432 19 0 0 0 0 1 25 45 62 100 173 264 409 484 558 608 684 818 992 914 854 816 820 916 908 855 897 870 1484 1345 896 939 786 808 794 735 708 842 747 936 1250 1480 1813 1944 2106 2304 2392 2562 2720 2767
0 0 0 0 0 0 0 0 0 56 580 679 668 758 816 789 672 598 545 414 404 255 2 445 447 159 13 35 78 71 130 179 4 198 337 419 129 0 0 0 0 1 24 46 67 98 154 242 370 477 594 665 723 835 984 968 908 866 907 974 957 966 983 1144 1413 1492 1142 893 686 751 776 616 533 625 648 847 1113 1328 1610 1803 2005 2118 2122 2164 2456 2592
0 0 0 0 0 0 0 4 0 10 558 712 671 663 726 572 443 298 332 0 82 46 216 256 505 247 35 0 14 93 49 106 120 166 276 410 326 93 2 0 0 0 29 50 62 87 133 216 358 475 629 710 768 859 1003 1002 1013 1020 989 1032 1026 1051 1101 1274 1484 1580 1404 1105 859 699 726 677 592 579 604 783 1012 1234 1428 1611 1853 1948 1865 1854 2205 2434
0 0 0 0 0 0 1 103 128 309 711 640 663 446 226 349 262 154 125 80 8 0 300 427 498 265 82 12 0 60 53 38 137 154 235 368 382 193 84 0 0 0 42 59 73 99 138 241 353 488 651 733 796 877 1003 1052 1088 1068 1049 1094 1075 1157 1195 1371 1539 1629 1586 1420 1109 822 697 710 684 678 676 675 860 1097 1194 1288 1413 1563 1670 1692 2054 2273
0 0 0 0 0 0 0 0 355 843 864 582 492 310 227 240 171 150 118 122 108 4 156 165 356 290 156 138 113 0 21 51 138 156 193 307 387 235 133 15 0 1 49 77 96 125 182 252 324 457 624 762 850 895 979 1074 1170 1178 1148 1149 1123 1209 1290 1428 1558 1611 1678 1643 1378 1000 753 655 845 714 710 576 629 843 936 1038 1169 1339 1522 1562 1911 2127
0 0 0 0 0 0 0 0 213 866 891 672 527 288 259 242 297 193 141 141 55 25 527 452 227 200 21 3 616 258 0 30 90 135 152 206 352 302 80 1 0 0 40 86 104 145 198 246 310 413 572 730 860 929 975 1081 1175 1213 1229 1218 1292 1261 1394 1487 1566 1607 1680 1727 1589 1235 1004 882 813 823 731 621 596 629 766 923 1053 1172 1412 1458 1687 1947
0 0 0 0 0 0 8 414 535 964 972 813 586 363 237 222 244 185 92 159 312 506 412 339 328 245 310 491 886 862 729 104 103 123 127 248 351 321 388 127 0 0 25 96 134 162 208 253 306 386 524 684 834 956 1002 1091 1175 1238 1296 1301 1292 1313 1493 1560 1702 1637 1668 1741 1696 1506 1321 1192 1044 1246 754 693 1032 505 662 814 901 1031 1243 1390 1438 1756
1 0 1 0 0 0 0 834 1022 1016 837 780 577 450 396 353 355 128 353 323 304 161 425 393 431 365 201 0 144 595 679 445 139 126 151 230 335 281 427 205 1 0 5 80 162 195 247 275 311 388 522 674 814 943 1063 1118 1170 1228 1325 1380 1357 1341 1538 1608 1770 1638 1716 1726 1712 1605 1458 1246 1097 1256 848 785 1033 786 707 668 752 915 1074 1268 1353 1535
0 19 2 2 0 0 6 876 1135 410 762 757 678 595 379 262 210 43 84 288 244 44 14 361 444 84 85 3 612 637 631 553 388 242 187 218 229 248 340 376 40 0 2 67 179 224 273 312 348 417 545 700 803 947 1091 1172 1178 1213 1305 1404 1415 1396 1553 1653 1744 1689 1742 1755 1701 1676 1626 1280 1118 1227 1075 850 1083 1012 1006 905 874 983 1190 1241 1406 1732
24 13 16 7 0 58 668 927 868 408 868 723 878 645 309 241 114 198 29 39 185 100 0 0 179 16 3 0 723 640 627 612 501 385 221 227 319 340 283 322 151 0 0 32 129 244 291 351 410 458 592 744 810 994 1102 1184 1210 1223 1293 1405 1422 1431 1552 1696 1783 1752 1754 1773 1732 1676 1851 1737 1437 1278 1269 1072 1207 1183 1122 1182 1057 1136 1228 1279 1395 1911
38 44 27 3 0 264 1114 1004 1019 538 411 121 11 38 283 214 22 286 228 168 36 24 26 17 0 9 10 36 326 596 617 605 567 503 410 342 339 335 254 29 233 2 0 20 133 260 335 400 453 509 631 769 849 947 1097 1212 1248 1258 1313 1498 1448 1436 1538 1717 1815 1911 1804 1796 1774 1723 1905 1909 1832 1638 1408 1327 1268 1205 1179 1241 1303 1243 1192 1314 1699 1545
47 10 62 8 0 377 1034 558 416 425 130 16 0 0 238 115 0 30 17 92 70 102 0 55 2 6 4 0 231 562 656 631 599 543 524 447 380 367 331 6 5 22 0 28 145 252 347 429 493 550 638 786 872 985 1169 1265 1289 1288 1318 1419 1483 1416 1559 1773 1871 1914 1888 1882 1839 1849 1914 2052 1959 1938 1792 1618 1463 1340 1308 1238 1714 1420 1339 1500 1540 1557
44 39 26 22 47 214 640 208 10 5 1 21 3 0 185 3 5 106 272 0 0 0 8 19 10 2 0 381 510 455 679 712 648 561 539 546 470 413 383 314 193 5 0 30 151 248 353 442 514 559 629 769 875 994 1178 1308 1340 1322 1358 1436 1466 1399 1579 1774 1883 1977 1987 2007 1926 1860 1932 2135 2052 2096 2003 1858 1687 1534 1379 1348 1489 1501 1750 1507 1395 1385
86 66 1 35 27 5 159 0 0 0 0 0 0 1 0 3 2 0 7 3 76 97 292 32 14 0 482 1014 793 702 675 781 702 678 566 545 574 498 441 368 284 207 82 43 163 272 364 462 542 566 629 791 920 1063 1204 1363 1402 1391 1399 1496 1546 1540 1614 1779 1889 1965 2040 2084 2051 1982 1939 2162 2173 2105 2136 2037 1891 1799 1644 1460 1302 1667 1510 1504 1483 1483
1617 39 27 2 1 0 0 0 0 0 0 1 0 200 23 0 0 0 0 0 73 225 29 28 17 4 772 1300 1030 927 835 779 835 716 698 586 598 586 522 464 383 282 186 89 193 292 385 469 560 594 628 805 981 1117 1220 1352 1436 1458 1456 1515 1622 1628 1681 1825 1871 1975 2083 2148 2174 2151 2133 2201 2267 2162 2156 2156 2067 1929 1743 1468 1418 1439 1428 1356 1379 1420
162 11 16 23 0 0 0 0 0 0 0 258 816 769 575 244 0 0 0 0 61 0 1 12 22 7 668 1072 1067 961 861 859 840 826 723 686 704 695 644 560 470 388 256 158 202 298 380 480 568 620 632 807 1045 1187 1283 1381 1482 1544 1574 1593 1705 1697 1711 1842 1874 1953 2035 2139 2258 2293 2292 2268 2339 2268 2194 2174 2153 2097 1959 1781 1606 1545 1563 1577 1618 1544
0 1 12 20 10 15 5 6 1 0 77 411 830 721 637 461 0 0 0 1 0 0 0 6 13 5 466 1032 1103 930 1126 961 837 918 881 811 702 745 724 646 546 440 336 174 170 295 357 462 554 609 644 808 1054 1245 1349 1458 1554 1654 1753 1823 1774 1731 1702 1750 1866 1918 1983 2069 2205 2330 2402 2427 2384 2396 2376 2320 2264 2200 2150 2038 1947 1838 1744 1730 1731 1598
0 2 4 20 245 440 611 635 674 320 959 864 931 853 724 526 1 0 0 0 0 0 0 0 3 1 405 993 850 938 972 1124 905 922 990 950 876 806 754 698 605 502 353 182 141 325 365 439 509 587 643 780 1043 1246 1380 1458 1546 1643 1763 1869 1898 1873 1820 1768 1811 1896 1933 2004 2088 2226 2366 2455 2461 2417 2439 2463 2455 2438 2401 2320 2120 1948 1931 1930 1861 1695
0 14 310 383 382 868 1171 1083 1010 972 1063 1018 1018 996 884 663 199 0 0 0 0 0 0 0 0 0 404 490 720 871 924 1108 1086 936 1016 1047 984 921 826 746 654 532 370 192 158 340 425 456 489 539 596 727 903 1148 1352 1476 1541 1602 1695 1786 1859 1870 1835 1758 1729 1800 1895 1933 1990 2068 2199 2348 2449 2439 2393 2431 2516 2588 2625 2473 2191 2032 2041 2035 1918 1736
0 0 1 9 38 397 1024 1011 987 964 995 1074 1086 1052 989 866 666 596 404 501 0 0 0 0 0 278 591 675 810 1096 942 1003 1292 1094 1013 1095 1068 981 897 812 666 552 457 245 145 304 486 562 561 562 592 648 790 967 1177 1389 1542 1623 1654 1692 1768 1715 1643 1519 1498 1630 1771 1850 1895 1944 2001 2157 2322 2411 2456 2513 2553 2586 2536 2364 2165 2088 2082 2065 1966 1850
0 0 53 0 160 796 827 898 806 734 742 863 995 995 990 897 768 705 630 580 515 328 434 460 688 826 767 1012 1182 1144 1086 1099 1286 1274 1159 1088 1102 1024 965 866 702 579 290 362 221 200 289 487 579 597 640 665 706 780 956 1127 1371 1554 1605 1556 1496 1487 1520 1466 1341 1475 1622 1725 1805 1847 1890 1966 2102 2269 2413 2505 2490 2408 2357 2241 2136 2062 2049 2078 1991 1795
0 0 298 0 2 408 758 690 579 589 552 624 749 835 840 917 895 753 749 666 625 685 581 695 820 1045 1184 1136 1144 1206 1160 1088 1174 1312 1281 1196 1033 1035 1025 870 721 589 430 385 366 251 210 224 304 500 607 609 525 590 632 589 935 1238 1325 1289 1251 1363 1296 1236 1178 1267 1470 1612 1701 1832 1876 1908 1986 2088 2176 2198 2201 2228 2201 2122 2026 1960 1937 2030 1975 1716
0 0 257 0 1 0 0 565 524 244 295 5 550 674 768 775 942 1028 960 1154 842 713 636 588 895 1274 1249 1248 1134 1089 1074 1085 1122 1039 1224 1226 1231 1078 854 600 566 620 403 308 311 438 340 236 198 206 175 207 308 358 427 614 859 992 1028 952 1052 1281 1388 1294 1188 1181 1317 1434 1449 1647 1878 1965 2021 2079 2113 2090 2103 2226 2199 2006 1940 1925 1966 2009 2017 1941
0 0 0 0 0 0 0 0 0 0 0 0 373 584 770 769 858 1066 1069 1050 987 1021 851 758 1104 1254 1225 1238 1168 1089 1108 1043 1017 993 1001 1144 1224 1245 1105 1004 802 604 452 507 516 446 391 313 268 133 54 81 164 273 371 452 653 791 842 857 864 951 1097 1206 1159 1054 1215 1418 1368 1482 1808 1952 1945 1982 2063 2125 2196 2339 2262 2008 1971 2008 2000 1956 1910 1872
0 0 0 0 0 0 0 0 0 0 0 180 327 530 656 660 838 941 1266 1338 1342 1349 1228 1190 1204 1326 1358 1239 1297 1209 1162 1084 1062 1024 1046 1078 1168 1117 1097 1011 878 773 772 690 635 684 802 512 366 246 241 199 213 2 157 420 560 721 817 892 1007 1102 1155 1131 1132 1122 1147 1405 1538 1596 1724 1805 1874 1968 2074 2112 2146 2237 2182 1999 1979 1975 1924 1864 1788 1691
0 0 0 0 0 0 0 0 0 0 43 462 488 574 634 614 712 935 1133 1488 1486 1434 1415 1401 1369 1331 1295 1327 1267 1232 1101 1070 1077 1072 1047 1083 1101 1065 1120 1069 942 854 757 813 751 720 838 872 630 449 399 357 290 266 186 284 405 584 742 848 948 1079 1218 1340 1352 1349 1288 1212 1402 1575 1678 1671 1596 1520 1825 2085 2091 2092 1980 1813 1791 1821 1827 1742 1600 1450
0 0 0 0 0 0 0 0 5 1 450 376 387 493 685 368 412 881 718 1031 1313 1394 1349 1378 1288 1323 1430 1333 1220 1115 1060 999 1034 970 1024 1052 969 955 924 830 662 750 835 825 895 899 833 833 880 706 584 432 322 204 154 127 283 374 470 549 691 899 1083 1224 1154 1209 1346 1322 1302 1379 1494 1302 1222 1265 1339 1722 1961 1861 1751 1655 1559 1510 1382 1186 1182 1115
0 0 0 0 0 0 0 0 0 351 379 424 442 425 403 395 447 318 203 264 1097 1391 1447 1381 1328 1436 1400 1268 1280 1228 1179 1046 857 789 893 791 811 790 825 740 710 621 487 497 756 894 798 831 856 840 702 608 467 308 178 81 280 389 387 419 526 668 872 1102 1276 1379 1506 1673 1618 1470 1535 1455 1272 1119 1167 1303 1366 1553 1567 1547 1368 984 777 746 966 993
0 0 0 0 0 0 0 34 247 357 468 339 369 374 358 318 266 340 235 531 716 1479 1498 1502 1439 1273 1361 1176 1290 1358 1119 1051 831 792 694 653 484 391 354 578 598 620 619 604 650 527 589 770 865 866 950 724 579 369 258 344 532 460 535 697 664 589 718 927 1149 1130 909 943 975 1008 1064 1055 946 934 981 1051 1132 1300 1376 1240 990 575 481 577 685 854
0 0 0 0 0 82 152 195 368 457 395 377 363 349 352 283 278 463 272 194 685 1160 1445 1525 1489 1423 1325 1167 1301 1280 1214 914 707 688 608 569 476 454 377 198 29 351 438 600 631 639 655 511 488 701 879 872 873 546 646 744 733 700 504 343 384 457 546 661 737 657 541 506 615 716 762 836 871 883 846 912 987 1227 1373 1165 945 671 498 752 859 888
0 0 0 0 170 142 236 112 364 344 322 355 349 373 400 361 335 145 0 192 569 699 1110 1354 1354 1349 1323 1249 1228 1153 985 750 475 472 458 477 450 372 75 13 23 62 265 424 556 648 775 658 580 614 737 852 890 769 774 731 664 347 137 287 439 430 441 456 369 314 446 532 458 441 478 558 577 700 867 854 990 986 1241 1235 1093 926 790 698 730 695
0 0 0 0 0 168 192 0 163 0 0 294 438 614 332 255 129 183 0 744 423 662 741 1058 1324 1309 1235 1256 1126 1128 976 782 624 522 503 390 175 145 177 200 227 194 149 382 483 609 803 838 640 563 676 762 811 840 779 542 378 356 434 496 550 520 422 208 260 355 452 551 584 542 483 446 389 572 694 809 1012 1026 1034 1219 1246 1075 924 921 946 912
0 0 0 0 3 6 0 0 24 165 460 141 698 498 452 0 38 223 257 516 710 635 639 809 1085 1197 1253 1264 1190 935 891 701 624 567 452 277 184 212 233 283 489 496 380 368 464 552 617 766 731 626 613 728 785 807 822 695 566 517 520 553 492 482 438 479 466 648 897 1024 1154 1180 1119 1064 924 900 847 1027 1244 1282 1267 1296 1297 1236 1212 1228 1150 998
74 70 11 4 0 0 0 0 97 0 135 729 676 217 544 366 296 622 709 884 949 798 622 633 897 1110 1171 1200 1036 823 804 686 603 589 431 294 193 208 250 297 375 461 526 521 482 509 598 650 680 614 655 653 609 535 566 787 973 912 901 786 615 717 725 784 918 1074 1148 1190 1327 1386 1357 1285 1274 1195 993 1016 932 939 1040 1150 1232 1272 1231 1236 1132 1087
262 24 185 43 0 299 0 0 71 132 880 1005 834 610 854 658 806 908 882 760 696 585 496 500 527 705 904 1072 949 864 752 628 579 542 348 225 184 248 307 313 283 288 293 330 342 381 393 492 544 549 537 552 551 612 645 612 538 601 625 770 801 780 946 1068 1233 1282 1253 1223 1192 1129 1072 1096 1025 937 763 650 606 727 799 756 790 864 1014 1131 1206 1170
0 376 269 279 201 154 0 364 576 1018 1067 1133 1095 1023 1094 1058 1058 1084 990 791 744 588 539 463 527 542 813 1045 987 872 646 654 610 395 260 194 182 181 262 317 346 349 350 357 346 336 336 351 395 441 477 502 532 503 536 529 550 490 462 454 380 576 673 834 948 1005 1037 969 850 866 832 791 699 628 566 346 288 293 401 438 443 519 663 753 812 787
531 632 524 575 527 703 711 801 914 1069 1330 1279 1138 1126 1030 1009 1056 1025 1001 930 788 720 661 556 642 710 781 858 792 707 650 647 479 270 276 237 162 147 126 182 230 251 283 299 304 317 312 305 301 292 302 300 290 317 306 354 407 445 456 437 418 64 366 536 696 724 738 636 567 465 463 452 376 269 281 308 256 210 273 261 220 100 92 90 84 29
403 337 545 584 632 476 761 832 1062 986 1118 1190 1222 1122 1060 837 921 871 915 834 737 755 773 710 667 657 624 763 808 760 674 557 273 193 183 181 149 120 104 89 14 21 55 158 167 208 233 275 293 335 325 343 357 345 342 324 362 379 338 357 386 390 341 366 361 362 397 405 360 315 297 226 204 100 0 10 164 184 151 162 84 34 125 11 12 10
291 278 479 426 468 507 383 848 950 1043 932 1021 1112 1137 996 866 786 926 977 950 917 873 814 753 618 663 748 846 803 662 499 363 230 201 182 159 134 103 21 0 0 0 0 0 0 0 0 0 0 0 91 90 217 237 270 293 284 308 295 217 239 301 373 257 215 247 260 258 270 245 196 180 193 102 8 8 10 6 0 0 0 0 0 0 0 0
288 520 516 420 516 654 642 793 937 800 905 946 1012 1103 1037 929 976 1100 1148 1040 970 865 834 898 902 845 933 913 640 521 367 245 263 277 168 44 43 63 61 55 34 0 0 0 0 0 0 0 0 0 0 0 0 0 4 165 227 228 244 239 227 161 254 264 233 175 44 6 117 116 0 0 0 0 0 0 0 0 0 0 0 0 0 0 0 0
415 476 73 386 367 475 577 710 910 685 501 748 801 924 1054 1031 1091 1229 1136 1045 917 875 939 993 974 940 859 710 466 370 303 265 286 258 123 81 69 53 49 40 29 18 4 0 0 0 0 0 0 0 0 0 0 0 0 0 13 0 9 0 0 0 63 64 47 0 0 0 0 0 0 0 0 0 0 0 0 0 0 1 0 0 0 0 0 4
333 14 0 240 0 10 178 610 660 436 506 852 956 782 852 964 1080 1215 1193 1024 890 832 864 878 834 751 613 422 418 351 201 107 117 104 66 52 25 9 9 10 8 3 0 0 0 0 0 0 0 0 0 0 0 0 0 0 0 0 0 0 0 0 0 0 0 0 0 0 0 0 0 0 0 0 0 0 0 0 0 0 0 0 0 0 0 0
Wind_Speed
nan nan nan nan nan 16 17 18 21 26 28 29 27 25 19 18 20 21 20 16 17 21 17 15 17 15 13 nan nan nan 14 nan nan nan nan nan nan nan nan nan nan nan nan nan nan nan 2 1 1 1 4 6 6 5 5 6 7 6 6 6 7 9 9 10 10 11 12 13 13 15 14 15 17 18 20 21 22 22 22 20 19 18 17 15 14 15
nan nan nan nan nan nan 17 20 28 nan 32 28 28 25 20 18 19 21 20 17 21 21 14 14 17 13 nan nan 16 16 13 nan nan nan nan nan nan nan nan nan nan nan nan nan nan nan 4 3 2 1 4 6 7 6 4 6 6 6 5 6 7 8 9 10 11 12 13 14 14 14 15 16 18 20 21 22 23 21 21 19 18 17 17 16 15 15
nan nan nan nan nan nan nan 28 31 30 nan 30 28 24 20 16 20 19 21 22 22 22 13 13 18 17 17 nan nan 16 15 nan nan nan nan nan nan nan nan nan nan nan nan nan nan nan 3 2 2 1 4 6 7 5 5 6 5 5 5 6 7 8 9 10 11 13 14 15 15 15 16 16 19 23 23 23 22 21 20 19 18 18 17 17 17 17
nan nan nan nan nan nan nan nan nan nan nan nan 32 28 17 18 19 17 20 23 24 23 19 17 20 19 nan nan 17 18 17 17 17 18 nan nan nan nan nan nan nan nan nan nan nan 4 4 3 2 3 4 5 5 6 5 5 5 5 5 6 6 8 9 9 12 14 15 15 16 17 15 17 19 21 22 23 21 20 19 20 19 18 17 17 18 18
nan nan nan nan nan nan nan nan nan nan nan nan nan 26 25 24 20 21 19 22 22 27 24 24 20 18 15 nan nan 19 18 16 18 21 18 nan nan nan nan nan nan nan nan nan nan 7 6 4 1 2 3 3 4 7 7 6 5 6 5 5 5 7 9 10 12 13 16 18 20 21 21 20 22 23 22 22 23 20 20 20 19 20 17 17 18 18
nan nan nan nan nan nan nan nan nan nan nan nan 24 22 24 23 23 28 27 23 21 20 19 20 19 12 12 8 nan 12 17 12 15 18 16 nan nan nan nan nan nan nan nan nan nan 6 3 1 3 5 3 3 4 6 7 7 7 6 5 4 5 8 10 10 12 14 16 18 19 21 21 21 22 21 20 20 19 19 18 19 19 18 17 16 16 16
nan nan nan nan nan nan nan nan nan nan nan nan nan 21 25 28 28 29 27 24 19 18 19 15 nan nan nan nan nan nan nan 7 13 15 17 nan nan nan nan nan nan nan nan nan nan 8 5 4 4 3 2 3 4 6 5 7 8 8 6 4 4 7 10 11 13 14 17 18 19 19 19 19 20 19 22 21 20 18 19 18 17 17 16 15 15 15
nan nan nan nan nan nan nan nan nan nan nan nan nan nan 31 33 29 28 28 25 24 28 27 18 18 nan nan nan nan 8 9 9 8 12 15 nan nan nan nan nan nan nan nan nan nan 5 4 3 1 0 2 2 3 3 4 6 7 8 7 6 5 8 11 12 13 15 17 18 19 20 20 19 18 18 19 19 20 20 18 17 17 17 16 15 14 14
nan nan nan nan nan nan nan nan nan nan nan 30 32 30 31 31 30 31 31 27 25 28 24 16 15 16 nan nan nan nan nan 11 6 5 9 10 nan nan nan nan nan nan nan nan nan 4 4 3 1 2 2 2 3 2 4 5 6 7 9 8 8 9 11 13 13 15 18 19 19 19 19 19 19 17 17 18 18 18 18 16 18 17 16 14 14 12
nan nan nan nan nan nan nan nan nan nan nan 37 42 43 42 41 37 35 33 31 28 27 19 17 16 11 nan nan nan nan nan 7 4 3 5 8 nan nan nan nan nan nan nan nan nan nan 3 3 2 2 4 5 2 2 4 4 4 6 8 8 8 11 13 14 14 17 18 20 20 19 19 17 18 18 18 16 15 16 16 15 15 16 16 14 13 11
nan nan nan nan nan nan nan nan nan nan 37 36 43 41 41 40 36 34 36 30 29 25 nan 20 17 14 nan nan nan nan 3 1 nan 9 9 10 10 nan nan nan nan nan nan nan nan nan 3 3 5 8 5 3 6 6 4 4 4 5 6 7 8 11 15 15 15 17 18 20 20 19 18 16 15 15 14 14 15 15 15 14 14 14 15 14 13 13
nan nan nan nan nan nan nan nan nan nan 33 36 37 36 38 38 37 36 32 nan nan nan 22 23 16 16 nan nan nan nan nan 12 10 6 5 5 5 nan nan nan nan nan nan nan nan nan 8 11 10 9 8 6 6 6 4 5 5 5 6 7 8 11 14 16 16 17 18 20 20 20 17 15 14 12 13 11 11 12 12 13 13 13 14 14 14 12
nan nan nan nan nan nan nan 39 41 34 35 40 37 37 37 33 34 31 29 nan nan nan 22 25 22 15 nan nan nan nan nan nan 10 10 8 7 6 8 nan nan nan nan nan nan nan nan 9 6 7 7 7 9 8 5 3 3 4 5 6 7 7 10 13 15 16 16 17 18 19 18 17 16 14 12 11 10 9 10 10 11 12 12 11 12 11 11
nan nan nan nan nan nan nan nan 40 34 36 32 32 33 37 36 33 24 21 19 18 nan 19 23 20 11 9 7 5 nan nan nan 12 10 12 11 10 8 11 nan nan nan nan nan nan 10 7 6 7 7 7 7 7 5 4 4 5 5 6 7 7 9 12 16 17 17 18 18 18 18 17 16 15 13 12 11 9 9 9 9 8 8 8 8 8 8
nan nan nan nan nan nan nan nan 26 27 24 25 33 28 29 30 25 20 17 13 nan nan 21 22 20 10 nan nan 11 10 nan nan nan 13 14 15 15 13 nan nan nan nan nan nan 14 10 8 7 8 8 8 9 8 6 6 6 6 6 6 7 7 9 12 14 16 18 18 19 19 19 18 16 15 13 12 11 10 8 8 8 7 7 7 7 7 6
nan nan nan nan nan nan nan 26 26 30 31 31 32 39 36 26 26 23 nan 20 20 22 20 16 13 13 11 10 8 12 18 18 17 16 17 15 16 17 19 19 nan nan nan nan 14 11 10 10 10 10 10 9 9 8 8 7 7 6 6 6 7 7 10 13 15 17 18 19 20 19 18 16 14 14 12 11 11 10 8 7 6 6 5 6 5 6
nan nan nan nan nan nan nan 31 31 27 23 24 33 31 28 29 32 29 28 24 23 22 16 16 15 14 12 nan 5 11 14 15 16 13 12 12 13 14 12 13 nan nan nan nan 14 12 11 13 12 11 10 10 10 10 9 8 7 6 6 6 7 8 10 11 14 16 18 20 20 20 19 18 16 14 12 11 9 8 8 8 7 6 5 6 6 5
nan nan nan nan nan nan nan 27 31 35 28 32 30 25 32 33 33 nan nan 27 25 nan nan 17 12 nan nan nan 12 11 9 9 8 8 7 9 10 9 7 7 nan nan nan nan 14 13 12 13 14 14 12 10 9 9 10 9 9 9 8 6 5 7 8 10 13 15 18 19 20 21 20 19 18 16 14 13 11 11 10 9 8 9 9 6 6 6
nan nan nan nan nan nan 32 35 36 36 37 32 26 24 30 31 31 29 nan nan 22 nan nan nan 15 nan nan nan 11 4 3 4 3 5 7 6 6 5 6 6 8 nan nan nan 19 17 15 15 15 15 13 12 11 11 11 12 12 11 10 8 7 6 6 8 12 14 18 19 22 22 21 20 20 18 17 15 14 14 12 11 10 9 7 7 7 6
nan nan nan nan nan 22 31 35 31 36 40 35 nan nan 29 30 nan 23 17 16 nan nan nan nan nan nan nan nan 7 5 4 1 2 3 2 3 3 4 5 nan 7 nan nan nan 21 17 14 13 14 15 15 14 14 14 15 14 14 12 11 10 9 11 9 9 9 11 14 17 20 21 22 22 21 20 19 18 17 16 14 13 12 10 9 7 8 7
nan nan nan nan nan 26 28 37 30 29 30 nan nan nan 26 27 nan nan nan nan nan 16 nan nan nan nan nan nan 8 2 3 2 4 4 2 2 3 4 4 nan nan nan nan nan 20 18 15 14 15 16 17 17 18 18 17 16 13 13 14 13 12 9 9 9 10 11 12 15 17 19 20 21 22 21 22 21 19 17 15 15 14 11 9 11 11 12
nan nan nan nan nan 25 24 34 nan nan nan nan nan nan 22 nan nan 21 19 nan nan nan nan nan nan nan nan 12 9 9 7 4 1 3 3 4 4 4 4 3 5 nan nan nan 19 20 17 16 16 19 20 22 22 21 18 17 17 16 15 15 15 13 12 11 12 12 13 14 15 15 18 20 21 22 23 22 21 19 18 16 15 14 15 15 15 16
nan nan nan nan nan nan 25 nan nan nan nan nan nan nan nan nan nan nan nan nan nan nan 20 nan nan nan 13 12 10 8 9 8 7 6 5 6 7 8 7 7 7 7 nan nan 16 21 21 19 18 20 21 21 20 20 20 19 17 16 16 17 17 16 14 14 13 13 14 13 14 14 16 18 20 21 21 21 21 20 19 18 18 19 20 19 17 15
33 nan nan nan nan nan nan nan nan nan nan nan nan 24 nan nan nan nan nan nan nan 19 nan nan nan nan 14 15 13 11 10 11 11 8 7 8 10 12 13 13 11 12 12 nan 15 20 24 24 24 24 23 21 20 21 20 19 19 19 18 17 18 17 17 16 16 15 14 13 13 14 15 15 17 18 19 19 20 19 18 19 21 21 20 17 16 15
32 nan nan nan nan nan nan nan nan nan nan 23 25 29 24 24 nan nan nan nan nan nan nan nan nan nan 16 18 17 17 16 13 11 10 8 10 10 11 13 14 15 15 16 16 17 21 25 27 26 25 24 22 19 20 20 20 20 20 19 18 18 19 19 19 19 16 15 14 13 13 14 14 15 15 15 16 17 15 15 18 19 17 15 15 15 16
nan nan nan nan nan nan nan nan nan nan nan 24 27 33 27 28 nan nan nan nan nan nan nan nan nan nan 17 21 23 21 19 17 14 11 11 9 10 12 13 15 17 17 17 18 20 22 22 24 28 29 27 24 20 19 20 21 22 23 23 22 23 25 25 23 21 19 18 16 14 14 13 13 14 14 14 14 14 13 13 16 15 13 13 12 12 14
nan nan nan nan 27 28 27 22 21 20 24 30 29 31 30 29 nan nan nan nan nan nan nan nan nan nan 22 24 26 23 21 19 16 12 11 11 11 11 12 14 15 17 19 19 20 22 26 27 29 29 28 25 22 21 21 22 23 24 25 26 26 25 26 26 25 22 21 19 17 16 14 15 14 15 14 14 13 12 13 14 13 13 12 13 12 14
nan nan 33 32 34 33 29 26 28 28 23 25 31 31 32 36 32 nan nan nan nan nan nan nan nan nan 24 26 25 23 22 21 19 14 12 11 11 11 11 12 16 20 23 24 25 23 22 25 30 31 30 28 25 24 23 23 23 23 25 26 25 23 23 25 26 24 22 22 20 19 17 17 17 16 15 15 14 12 13 14 13 12 12 14 13 14
nan nan nan nan nan 36 35 31 29 28 27 25 29 32 37 37 42 37 29 27 nan nan nan nan nan 23 23 25 24 24 23 22 20 17 13 11 13 12 13 14 15 17 21 24 27 25 24 24 29 33 32 30 29 26 23 23 23 24 26 27 26 24 23 24 24 25 25 24 21 20 20 20 20 20 18 17 15 13 14 15 13 13 14 15 15 15
nan nan nan nan 34 37 36 33 32 28 25 29 32 33 35 40 40 37 33 31 27 23 21 18 25 28 25 25 27 26 24 24 21 17 15 14 12 12 12 13 16 14 16 13 18 22 24 25 31 37 36 33 30 28 25 24 24 24 24 26 27 26 26 27 25 25 25 24 22 22 21 20 20 20 19 18 17 16 16 17 16 15 15 15 15 15
nan nan 33 nan nan 37 35 32 29 30 29 29 29 33 36 36 38 40 37 36 31 26 28 27 27 26 25 24 27 28 28 27 25 22 17 14 12 12 11 11 14 14 11 6 9 16 20 22 24 29 31 31 31 29 27 25 28 28 27 28 29 30 29 27 28 26 23 21 23 24 23 21 20 20 19 18 17 17 18 17 18 17 16 16 16 15
nan nan 29 nan nan nan nan 36 35 33 28 nan 35 36 38 40 42 40 39 35 32 30 29 28 28 24 22 24 26 28 29 29 27 25 20 16 13 12 12 12 14 14 14 13 12 14 14 17 18 21 31 36 35 34 32 31 34 33 30 31 30 31 31 29 28 26 24 23 26 25 24 23 22 21 20 20 18 18 19 20 19 18 17 18 18 17
nan nan nan nan nan nan nan nan nan nan nan nan 31 29 30 34 35 35 40 41 38 30 32 32 26 23 23 23 25 25 27 27 28 25 21 19 18 14 16 19 18 13 9 7 8 8 11 13 14 18 nan nan 25 28 32 36 36 35 36 34 33 35 33 30 29 28 27 28 28 27 27 27 26 23 20 20 19 20 22 22 20 19 18 17 17 20
nan nan nan nan nan nan nan nan nan nan nan 28 27 28 28 31 33 38 37 35 37 37 33 29 31 30 30 27 25 24 26 27 28 29 27 23 20 19 18 15 14 13 12 14 16 17 16 15 13 12 14 19 21 nan 31 35 34 36 39 39 39 38 36 33 31 30 30 30 29 30 32 32 30 26 23 24 25 25 24 24 22 23 24 24 23 20
nan nan nan nan nan nan nan nan nan nan nan 28 30 29 31 35 38 40 37 37 37 38 39 38 37 36 32 30 29 28 29 30 31 31 30 29 29 27 26 23 17 10 15 18 18 17 16 14 11 12 14 17 20 25 31 34 32 34 40 41 41 42 40 39 36 33 32 31 30 29 30 30 29 29 29 28 28 28 29 28 28 27 28 28 28 28
nan nan nan nan nan nan nan nan nan nan 29 33 32 37 34 34 34 34 36 36 36 35 35 38 37 36 35 33 32 30 29 30 31 32 30 30 29 28 27 22 13 11 15 18 17 11 12 14 13 11 12 17 21 23 27 28 26 29 36 41 40 37 37 36 34 34 32 30 29 27 27 29 31 33 31 27 27 29 31 32 33 33 29 28 30 32
nan nan nan nan nan nan nan nan nan 27 31 36 36 36 34 32 32 33 34 34 33 32 33 36 38 39 38 36 33 29 27 28 33 34 35 34 33 30 28 26 21 16 15 16 14 15 20 18 16 14 13 11 12 15 18 nan 23 24 29 35 35 36 37 37 36 36 35 33 33 32 33 33 32 30 27 23 24 26 27 29 32 34 31 27 27 30
nan nan nan nan nan nan nan nan 26 28 27 31 35 36 33 31 30 30 33 33 33 31 35 35 37 37 36 33 32 30 26 28 31 31 34 36 35 33 31 28 26 23 20 20 21 18 15 15 14 14 13 13 11 11 16 19 21 21 25 29 31 31 32 33 33 35 35 33 33 35 35 32 28 28 27 24 20 21 24 27 31 32 30 29 27 28
nan nan nan nan nan nan 21 20 18 21 20 26 32 36 36 34 30 33 33 31 30 31 31 31 34 33 34 31 32 33 29 26 24 25 29 34 35 34 32 29 nan 26 25 24 23 20 17 17 16 17 19 15 10 14 20 20 20 20 22 23 23 23 25 28 29 32 33 34 34 34 33 31 29 30 29 23 19 21 25 26 28 30 32 33 32 32
nan nan nan nan 23 21 22 20 17 16 19 23 26 35 39 37 35 36 nan 29 27 28 29 28 27 29 29 30 31 32 29 25 21 22 25 30 32 33 nan nan nan nan 28 27 26 23 23 23 22 22 22 20 17 19 23 21 18 19 20 20 20 22 26 28 26 29 34 34 33 32 31 29 28 28 25 20 22 28 32 32 31 32 33 35 35 36
nan nan nan nan nan 21 24 nan 18 nan nan 16 19 27 37 39 39 38 nan 30 30 31 31 32 31 29 28 28 29 29 27 24 24 26 27 28 29 32 33 33 33 32 32 30 27 25 25 26 26 27 27 24 23 21 20 20 20 21 23 23 21 22 25 28 29 31 31 31 31 30 31 32 32 30 28 30 33 33 32 32 32 35 35 36 37 40
nan nan nan nan nan nan nan nan nan 15 13 16 16 17 26 nan nan 37 35 34 32 32 32 34 34 32 31 28 29 29 29 33 34 32 32 31 30 29 31 31 32 33 33 33 32 28 27 27 27 27 28 28 27 24 22 24 24 23 23 23 21 21 22 24 25 23 23 25 27 30 31 32 32 31 30 28 29 32 34 33 33 34 35 37 39 40
nan nan nan nan nan nan nan nan nan nan 17 18 17 21 23 27 31 36 38 40 38 34 34 33 33 31 32 31 32 33 35 35 36 36 34 32 31 30 30 29 29 29 30 32 32 31 30 29 30 30 29 29 29 25 21 24 26 25 22 22 21 20 19 18 19 19 18 19 20 22 23 24 25 25 26 27 29 31 33 33 34 34 34 34 35 36
19 nan 22 nan nan 23 nan nan nan 17 17 17 19 20 20 23 27 32 38 40 40 39 36 35 35 33 32 32 33 34 33 35 34 34 34 32 30 29 30 32 31 31 31 32 32 31 31 30 31 32 33 32 32 31 27 25 26 27 26 25 23 24 23 23 23 23 23 23 23 23 24 24 24 25 26 28 29 29 30 32 33 32 30 30 32 32
nan 19 19 22 22 22 nan 20 18 15 14 16 17 17 19 22 26 28 34 38 41 42 39 38 36 35 34 35 34 31 31 30 31 30 31 29 30 30 31 31 32 32 33 34 33 33 33 32 32 34 37 34 34 35 34 30 31 31 31 26 25 25 25 25 26 27 27 27 26 26 26 29 30 30 30 29 29 30 31 33 33 32 29 30 32 31
17 18 19 25 21 21 20 18 18 19 19 19 18 18 19 21 26 29 31 34 37 38 39 40 37 38 40 38 39 36 33 32 33 31 31 31 33 31 30 31 31 32 33 34 35 35 35 35 36 37 38 38 37 37 36 36 35 36 32 29 29 nan 28 28 29 30 29 29 29 29 30 31 32 31 31 32 30 31 32 34 33 nan nan nan nan nan
15 18 20 21 20 24 21 21 23 19 18 18 17 18 21 23 24 25 28 29 30 33 38 41 42 43 43 43 42 43 41 39 39 34 32 32 33 31 31 nan nan nan nan 35 33 35 38 39 39 40 40 41 37 38 38 39 38 37 35 33 31 32 32 32 33 34 32 33 33 33 34 35 33 32 nan nan 31 31 32 33 nan nan 36 nan nan nan
13 14 21 17 19 19 19 20 19 18 17 15 15 17 19 21 23 24 24 26 28 30 33 36 40 42 42 45 46 47 46 45 46 43 40 38 36 34 nan nan nan nan nan nan nan nan nan nan nan nan nan nan 39 40 40 40 39 39 39 38 35 33 34 34 34 35 35 35 35 35 36 37 41 39 nan nan nan nan nan nan nan nan nan nan nan nan
8 11 12 13 16 16 18 18 19 20 19 19 19 18 18 19 22 24 24 25 27 30 30 31 30 30 34 39 41 38 39 38 40 41 42 nan nan nan nan nan nan nan nan nan nan nan nan nan nan nan nan nan nan nan nan 41 39 39 41 40 37 37 37 34 34 36 nan nan 36 36 nan nan nan nan nan nan nan nan nan nan nan nan nan nan nan nan
8 9 nan 13 15 13 11 13 16 19 17 17 17 17 19 20 23 24 24 26 26 27 27 29 29 28 28 29 28 27 28 28 30 33 36 nan nan nan nan nan nan nan nan nan nan nan nan nan nan nan nan nan nan nan nan nan nan nan nan nan nan nan nan nan nan nan nan nan nan nan nan nan nan nan nan nan nan nan nan nan nan nan nan nan nan nan
7 nan nan 8 nan nan 8 9 13 15 16 15 16 19 20 21 22 24 24 25 25 25 26 28 29 29 28 26 24 25 24 22 23 26 nan nan nan nan nan nan nan nan nan nan nan nan nan nan nan nan nan nan nan nan nan nan nan nan nan nan nan nan nan nan nan nan nan nan nan nan nan nan nan nan nan nan nan nan nan nan nan nan nan nan nan nan
Wind_Direction
nan nan nan nan nan 232 229 226 222 224 229 233 229 230 227 225 231 226 229 224 221 223 222 245 238 226 217 nan nan nan 196 nan nan nan nan nan nan nan nan nan nan nan nan nan nan nan 69 322 249 112 71 58 72 106 125 122 119 116 105 91 87 98 105 114 121 125 129 136 138 141 128 123 116 116 121 124 124 124 124 124 124 125 126 124 119 118
nan nan nan nan nan nan 224 219 219 nan 226 234 235 235 225 225 231 227 228 227 229 241 218 227 244 233 nan nan 193 197 202 nan nan nan nan nan nan nan nan nan nan nan nan nan nan nan 188 196 237 159 81 63 57 92 116 106 113 122 113 91 98 110 110 112 118 122 128 132 128 132 126 127 122 120 121 125 124 124 125 126 126 126 128 126 123 119
nan nan nan nan nan nan nan 211 217 222 nan 225 233 233 230 220 234 231 235 227 226 240 242 229 237 230 219 nan nan 195 192 nan nan nan nan nan nan nan nan nan nan nan nan nan nan nan 184 234 247 161 95 75 66 83 107 130 134 126 117 104 103 113 114 115 122 127 128 134 133 136 132 128 129 129 130 130 128 125 124 123 125 127 130 128 125 120
nan nan nan nan nan nan nan nan nan nan nan nan 230 234 229 231 242 228 232 236 228 233 248 239 231 225 nan nan 201 193 196 188 179 180 nan nan nan nan nan nan nan nan nan nan nan 224 200 214 212 174 105 81 77 90 114 128 124 130 122 106 103 117 122 121 123 126 128 129 132 142 139 141 138 129 136 139 138 133 127 120 124 126 128 124 123 120
nan nan nan nan nan nan nan nan nan nan nan nan nan 234 236 239 230 236 238 237 235 233 244 255 243 221 226 nan nan 182 190 189 181 182 176 nan nan nan nan nan nan nan nan nan nan 220 214 207 160 84 96 100 72 78 94 114 125 129 105 97 96 119 125 127 124 129 133 141 149 154 156 153 152 150 147 146 144 135 128 127 124 119 124 126 124 121
nan nan nan nan nan nan nan nan nan nan nan nan 218 239 249 252 250 244 250 249 232 229 238 255 237 226 242 252 nan 197 193 186 189 182 165 nan nan nan nan nan nan nan nan nan nan 249 236 172 180 181 153 102 93 80 93 114 129 139 131 121 120 136 139 134 130 135 138 140 145 151 152 149 148 148 143 134 135 138 136 129 126 127 124 123 124 121
nan nan nan nan nan nan nan nan nan nan nan nan nan 239 243 254 249 255 255 245 235 230 241 237 nan nan nan nan nan nan nan 179 192 178 167 nan nan nan nan nan nan nan nan nan nan 248 240 189 191 182 130 93 83 87 104 120 132 141 141 130 125 138 143 142 139 139 141 147 146 143 142 140 137 138 132 134 134 137 140 142 134 127 128 126 123 122
nan nan nan nan nan nan nan nan nan nan nan nan nan nan 239 249 252 256 255 237 227 229 228 251 244 nan nan nan nan 238 198 190 175 170 171 nan nan nan nan nan nan nan nan nan nan 252 264 255 251 57 87 99 79 106 104 110 128 134 137 138 136 152 152 146 148 144 143 145 147 148 146 143 140 135 132 132 133 138 144 143 136 135 135 134 130 129
nan nan nan nan nan nan nan nan nan nan nan 200 202 223 237 245 246 248 243 237 233 235 227 239 250 245 nan nan nan nan nan 185 150 146 165 169 nan nan nan nan nan nan nan nan nan 217 237 249 173 181 160 127 200 152 91 87 111 133 143 143 152 159 160 153 151 151 147 148 148 149 151 149 145 140 137 139 141 140 143 141 141 139 141 143 144 140
nan nan nan nan nan nan nan nan nan nan nan 204 224 224 228 231 231 232 232 232 226 232 227 248 256 257 nan nan nan nan nan 165 140 116 158 183 nan nan nan nan nan nan nan nan nan nan 232 252 228 183 204 213 186 156 135 132 133 133 148 148 151 157 163 160 156 156 153 152 153 154 152 151 149 150 155 149 143 141 146 142 141 140 142 145 148 151
nan nan nan nan nan nan nan nan nan nan 204 210 221 224 222 224 226 228 228 224 228 227 nan 244 267 267 nan nan nan nan 201 152 nan 194 190 201 198 nan nan nan nan nan nan nan nan nan 216 237 229 222 224 208 209 196 173 151 131 131 142 151 147 155 165 164 161 161 156 157 157 157 156 154 153 152 156 157 153 155 155 148 146 148 148 154 153 161
nan nan nan nan nan nan nan nan nan nan 202 209 203 215 222 216 217 223 223 nan nan nan 225 232 267 278 nan nan nan nan nan 217 209 191 214 219 229 nan nan nan nan nan nan nan nan nan 206 218 218 217 213 217 218 213 190 167 155 135 143 157 153 161 166 168 168 167 163 162 160 162 162 159 157 159 159 156 153 151 150 152 153 158 163 158 165 161
nan nan nan nan nan nan nan 209 195 210 198 198 206 209 220 213 219 217 223 nan nan nan 228 236 256 259 nan nan nan nan nan nan 203 200 217 226 222 218 nan nan nan nan nan nan nan nan 213 230 242 238 223 214 218 218 207 183 163 149 144 151 157 155 168 172 174 172 171 169 165 165 165 164 165 163 162 159 158 155 157 160 163 169 161 164 160 150
nan nan nan nan nan nan nan nan 203 201 192 203 208 209 215 218 220 219 216 221 218 nan 228 237 236 236 245 216 295 nan nan nan 213 211 220 232 232 225 211 nan nan nan nan nan nan 216 208 221 231 236 231 222 213 219 224 206 183 169 151 147 151 157 171 178 179 178 179 174 171 171 170 170 172 169 168 165 165 162 164 168 165 163 163 160 145 144
nan nan nan nan nan nan nan nan 216 204 203 197 201 215 217 226 228 218 224 230 nan nan 231 242 248 241 nan nan 244 224 nan nan nan 215 225 232 230 226 nan nan nan nan nan nan 241 224 207 215 233 229 222 217 212 222 228 213 194 185 167 153 152 169 173 181 181 183 182 181 179 178 178 180 179 177 175 170 170 175 176 171 171 163 169 161 149 146
nan nan nan nan nan nan nan 216 220 209 204 195 206 210 218 214 222 217 nan 225 228 232 235 238 236 239 258 246 236 236 208 206 219 226 236 242 236 236 231 221 nan nan nan nan 243 231 215 220 228 224 221 217 212 221 224 224 209 194 178 161 151 163 177 181 186 185 186 186 188 188 188 188 188 187 188 186 183 184 180 180 175 170 167 157 163 162
nan nan nan nan nan nan nan 222 208 219 205 198 211 211 212 220 227 222 216 215 225 223 222 231 211 215 215 nan 266 239 222 204 215 229 249 248 244 247 244 229 nan nan nan nan 243 238 229 223 226 229 227 218 213 218 227 229 219 208 199 180 161 167 179 182 186 188 190 193 194 193 193 196 197 199 204 203 202 203 193 193 181 184 178 189 190 192
nan nan nan nan nan nan nan 212 217 202 209 213 207 211 219 217 224 nan nan 212 219 nan nan 232 220 nan nan nan 234 245 232 213 223 234 245 243 244 248 240 238 nan nan nan nan 242 243 239 234 236 229 222 221 220 226 228 228 222 213 206 197 183 181 177 177 187 191 195 197 197 199 198 199 202 205 207 211 215 215 218 208 205 203 208 199 202 212
nan nan nan nan nan nan 204 210 198 196 200 208 205 208 218 211 212 215 nan nan 213 nan nan nan 217 nan nan nan 240 258 252 206 217 247 255 263 245 236 239 249 234 nan nan nan 234 234 230 229 232 232 230 223 217 220 224 227 227 220 212 204 200 195 183 185 189 192 195 199 200 202 204 205 205 207 210 213 217 223 224 225 226 229 224 229 234 243
nan nan nan nan nan 193 200 203 198 192 191 198 nan nan 201 214 nan 224 212 213 nan nan nan nan nan nan nan nan 287 338 13 207 273 256 292 303 276 247 245 nan 250 nan nan nan 235 238 236 235 238 237 233 230 227 224 221 226 223 223 220 220 208 201 199 197 196 197 197 200 203 206 208 208 209 211 215 219 223 225 226 229 236 239 248 262 268 280
nan nan nan nan nan 193 199 199 209 202 197 nan nan nan 202 207 nan nan nan nan nan 223 nan nan nan nan nan nan 255 325 8 12 331 341 300 266 244 240 251 nan nan nan nan nan 233 239 236 231 235 237 234 232 229 225 225 225 227 225 222 222 220 222 213 205 200 201 197 203 203 209 213 214 215 216 218 223 227 230 232 236 241 249 257 260 264 264
nan nan nan nan nan 194 194 203 nan nan nan nan nan nan 204 nan nan 214 206 nan nan nan nan nan nan nan nan 217 206 199 197 230 282 307 289 259 257 248 237 242 254 nan nan nan 231 238 240 232 234 238 235 230 231 232 232 224 224 225 223 221 222 219 214 214 208 203 201 201 203 207 213 216 219 222 224 227 230 233 237 243 248 255 254 255 251 259
nan nan nan nan nan nan 208 nan nan nan nan nan nan nan nan nan nan nan nan nan nan nan 230 nan nan nan 215 200 208 208 215 226 234 241 246 242 244 240 237 233 224 243 nan nan 237 233 236 236 236 243 247 243 240 239 238 232 230 229 228 224 222 224 220 218 216 213 210 207 208 206 211 217 220 224 229 231 232 235 239 243 249 250 252 255 259 264
204 nan nan nan nan nan nan nan nan nan nan nan nan 215 nan nan nan nan nan nan nan 226 nan nan nan nan 214 205 208 210 216 227 228 244 256 250 245 238 235 236 237 234 230 nan 245 236 233 232 233 237 242 241 238 238 242 239 235 233 232 230 227 224 225 223 219 219 218 217 214 214 215 218 221 225 227 230 233 237 239 244 247 252 259 265 266 269
198 nan nan nan nan nan nan nan nan nan nan 217 212 209 212 212 nan nan nan nan nan nan nan nan nan nan 221 212 216 216 223 229 231 231 254 257 243 248 247 239 237 236 237 239 249 249 241 236 238 241 244 243 239 237 240 242 241 240 237 234 231 227 228 227 223 222 224 224 222 220 220 221 224 226 226 227 230 234 238 245 249 250 256 256 256 255
nan nan nan nan nan nan nan nan nan nan nan 209 217 207 211 219 nan nan nan nan nan nan nan nan nan nan 218 223 222 217 220 226 223 231 229 242 267 265 251 248 244 244 242 241 245 249 252 245 237 237 241 240 237 237 239 240 242 243 242 240 234 228 224 224 227 225 225 225 226 223 223 223 226 228 230 229 228 227 231 240 244 246 240 244 247 249
nan nan nan nan 212 207 205 206 196 207 209 220 211 214 208 218 nan nan nan nan nan nan nan nan nan nan 221 222 221 216 214 224 230 232 242 255 250 249 261 267 264 258 252 249 246 242 236 236 237 235 238 241 241 237 235 237 239 243 244 243 239 237 237 231 226 225 227 225 224 225 225 226 227 228 230 232 231 225 229 235 237 237 236 235 236 242
nan nan 207 215 209 203 204 205 199 208 221 220 222 213 212 216 218 nan nan nan nan nan nan nan nan nan 214 215 220 213 218 223 232 231 239 251 265 280 282 266 254 252 248 243 239 237 238 234 231 230 232 237 239 240 239 237 238 240 244 247 244 241 240 236 237 235 233 230 224 222 225 226 228 228 228 229 230 229 233 239 239 235 231 234 236 241
nan nan nan nan nan 203 201 201 204 209 220 224 224 216 213 213 220 221 217 218 nan nan nan nan nan 224 211 211 213 218 220 227 233 237 237 250 257 263 275 273 263 250 235 230 227 222 221 220 222 225 227 232 239 244 247 245 241 238 239 242 241 239 242 241 240 241 242 238 231 225 226 227 229 231 232 232 234 233 236 241 241 239 237 236 237 240
nan nan nan nan 222 209 204 209 211 213 216 222 220 215 213 218 221 222 219 218 224 231 218 220 230 226 218 212 215 216 222 227 230 237 241 247 260 265 276 269 262 248 246 223 218 221 213 213 214 214 217 226 235 242 245 244 244 245 243 243 243 239 235 239 238 237 244 246 242 234 230 231 235 239 238 238 238 237 240 243 243 242 242 243 245 247
nan nan 224 nan nan 216 202 201 213 213 218 224 220 218 216 218 222 221 221 217 221 218 214 216 226 225 221 224 225 224 224 225 228 231 236 246 253 256 259 266 258 253 241 233 205 215 218 219 222 222 220 225 232 234 239 238 243 241 238 237 239 239 240 239 239 238 237 243 247 246 243 238 236 242 246 247 246 245 248 251 250 251 250 249 251 253
nan nan 230 nan nan nan nan 200 200 209 214 nan 220 215 213 214 220 218 224 221 220 210 209 222 224 223 221 229 231 229 229 229 230 228 225 227 239 249 249 248 247 239 228 222 204 200 210 221 228 228 228 228 229 230 232 233 238 240 240 240 239 241 244 242 241 243 238 230 234 243 247 246 241 241 243 247 249 252 255 256 255 254 255 254 257 256
nan nan nan nan nan nan nan nan nan nan nan nan 215 219 219 221 223 226 226 222 219 216 220 229 232 230 232 237 238 231 231 229 227 225 227 226 221 229 236 232 224 227 237 239 214 202 200 209 227 241 nan nan 238 241 240 236 236 238 240 243 242 241 243 243 241 239 237 236 236 235 236 240 246 243 242 245 247 249 252 255 254 253 254 259 262 262
nan nan nan nan nan nan nan nan nan nan nan 216 219 224 227 230 230 229 224 216 217 221 229 233 240 243 243 244 245 239 234 230 229 225 221 221 228 233 240 245 231 209 207 211 207 199 193 202 215 227 237 237 238 nan 239 244 243 242 242 245 244 242 240 241 238 236 237 240 240 239 235 235 236 242 242 242 246 248 252 255 256 253 250 245 243 252
nan nan nan nan nan nan nan nan nan nan nan 219 217 221 232 240 236 236 230 223 220 223 231 238 244 250 252 252 255 250 241 237 235 233 229 227 227 227 227 229 227 208 221 225 223 208 197 198 207 209 216 232 236 245 245 238 242 246 245 245 244 242 245 244 236 230 229 232 237 239 238 241 241 232 235 240 245 247 247 246 248 255 256 253 251 250
nan nan nan nan nan nan nan nan nan nan 219 219 223 227 229 232 234 229 226 227 224 226 229 238 243 250 253 258 261 259 251 246 240 234 231 229 229 236 238 240 245 216 221 233 234 214 208 202 210 217 226 226 241 249 251 249 251 256 245 239 241 243 246 248 242 235 233 235 240 239 236 239 241 235 234 242 250 252 256 259 256 245 238 247 256 254
nan nan nan nan nan nan nan nan nan 238 231 226 225 225 226 227 228 233 233 229 229 228 232 243 245 246 248 252 254 253 248 238 236 230 228 228 227 226 234 243 246 236 225 233 242 223 221 219 215 218 241 249 254 258 258 nan 263 264 249 238 237 240 241 244 243 241 239 242 244 240 237 240 244 247 248 244 248 254 259 264 265 261 255 244 242 251
nan nan nan nan nan nan nan nan 239 241 241 231 230 226 227 226 229 235 237 230 230 231 233 240 251 254 256 252 250 245 234 235 231 227 229 232 234 235 232 233 238 236 230 231 237 229 219 219 220 223 232 248 243 240 239 241 245 252 253 246 242 242 243 244 245 240 238 239 242 239 237 241 246 248 246 240 239 251 258 261 262 260 258 258 257 257
nan nan nan nan nan nan 249 258 251 253 243 242 229 226 226 227 227 235 234 230 233 241 241 243 254 253 255 249 240 236 241 242 240 234 233 236 237 238 239 239 nan 236 230 228 230 232 225 220 214 219 222 240 259 246 242 241 243 249 250 250 249 254 261 265 260 244 234 236 240 239 240 243 245 244 240 232 234 251 265 268 267 261 256 256 260 265
nan nan nan nan 243 250 262 254 250 253 247 242 233 223 222 223 230 231 nan 226 232 242 244 243 244 247 245 237 237 242 248 246 245 246 247 247 247 245 nan nan nan nan 237 232 230 229 231 231 229 232 233 232 230 240 253 254 250 249 248 247 246 252 260 264 259 244 235 239 244 244 245 250 253 252 250 249 248 245 250 258 259 254 253 256 264 273
nan nan nan nan nan 244 251 nan 242 nan nan 242 236 222 218 225 229 230 nan 231 233 242 240 234 231 234 237 238 238 244 248 252 255 257 254 255 255 251 248 246 245 244 243 239 232 226 229 235 236 235 234 234 233 240 257 265 259 249 244 243 243 246 247 253 250 241 238 240 244 246 250 252 256 259 258 252 247 250 259 266 269 268 267 269 269 270
nan nan nan nan nan nan nan nan nan 243 245 245 240 230 228 nan nan 230 231 232 236 238 237 236 234 232 237 238 243 247 252 256 259 255 256 259 262 256 250 246 245 246 244 243 240 233 227 230 233 232 234 232 233 236 242 245 242 239 240 240 244 243 245 248 247 246 245 246 246 250 253 256 260 264 264 263 260 257 255 255 260 266 267 267 268 269
nan nan nan nan nan nan nan nan nan nan 243 242 228 237 236 233 231 232 231 230 234 234 239 238 237 236 240 240 246 254 257 257 260 261 260 260 258 253 247 244 243 244 243 243 243 238 234 231 231 231 231 229 228 232 244 253 248 244 247 253 253 248 249 252 252 250 248 248 246 248 251 254 260 256 254 254 254 254 255 254 252 253 260 265 267 269
230 nan 233 nan nan 248 nan nan nan 248 242 237 239 244 238 237 233 235 233 229 231 237 236 237 236 239 241 245 252 254 256 259 257 257 255 252 254 251 247 246 245 245 246 245 245 245 244 240 237 235 232 230 228 229 235 251 257 253 248 240 242 250 248 248 252 252 248 248 247 248 250 254 256 254 250 249 247 249 254 254 255 260 264 267 269 268
nan 231 243 237 237 241 nan 243 242 244 241 234 243 244 241 232 234 239 238 234 235 234 237 239 239 238 243 245 247 252 256 253 254 252 253 249 250 249 247 243 245 247 247 247 247 248 249 248 247 244 240 236 232 230 235 243 254 254 248 242 247 257 261 255 255 257 255 252 249 249 250 248 247 248 251 254 258 259 260 259 258 259 261 269 271 270
231 235 237 241 237 235 238 247 235 235 235 226 237 241 238 233 229 240 242 238 236 237 239 243 243 244 245 246 251 244 246 253 253 250 250 248 249 249 250 249 247 248 248 249 247 248 249 250 251 250 248 244 241 241 238 238 244 253 251 245 246 nan 254 255 256 258 257 255 256 258 259 258 256 253 254 255 254 254 256 260 258 nan nan nan nan nan
229 236 233 237 234 236 236 230 232 230 227 231 229 234 241 240 237 237 240 240 241 242 242 242 246 247 248 247 250 253 254 256 256 253 254 254 250 250 253 nan nan nan nan 252 248 249 250 252 251 252 251 249 245 249 248 246 245 250 255 255 252 253 254 255 258 259 259 258 257 259 260 259 258 256 nan nan 253 252 253 257 nan nan 270 nan nan nan
230 239 236 235 233 231 230 228 223 219 221 224 231 232 234 232 234 236 237 240 243 242 243 247 250 250 251 252 251 251 253 255 257 254 255 257 256 254 nan nan nan nan nan nan nan nan nan nan nan nan nan nan 249 251 251 250 248 248 252 256 260 260 260 258 259 261 262 262 262 262 262 264 265 264 nan nan nan nan nan nan nan nan nan nan nan nan
237 231 232 238 232 221 217 214 212 215 216 218 223 234 239 242 241 234 235 237 240 242 241 240 244 249 251 254 256 258 254 251 255 255 256 nan nan nan nan nan nan nan nan nan nan nan nan nan nan nan nan nan nan nan nan 251 249 247 248 252 257 263 264 263 262 262 nan nan 262 260 nan nan nan nan nan nan nan nan nan nan nan nan nan nan nan nan
232 229 nan 228 228 217 230 220 230 225 218 220 221 229 235 238 243 242 238 236 236 240 241 244 241 241 245 251 259 260 262 257 254 255 253 nan nan nan nan nan nan nan nan nan nan nan nan nan nan nan nan nan nan nan nan nan nan nan nan nan nan nan nan nan nan nan nan nan nan nan nan nan nan nan nan nan nan nan nan nan nan nan nan nan nan nan
243 nan nan 236 nan nan 200 218 226 223 225 227 232 230 236 235 240 240 238 239 236 237 243 248 247 241 242 240 244 255 257 259 258 254 nan nan nan nan nan nan nan nan nan nan nan nan nan nan nan nan nan nan nan nan nan nan nan nan nan nan nan nan nan nan nan nan nan nan nan nan nan nan nan nan nan nan nan nan nan nan nan nan nan nan nan nan